Regional Weather Roundup
Issued by NWS Tiyan, Guam

Home | Current Version | Previous Version | Text Only | Print | Product List | Glossary On
Versions: 1 2 3 4 5 6 7 8 9 10 11 12 13 14 15 16 17 18 19 20 21 22 23 24 25 26 27 28 29 30 31 32 33 34 35 36 37 38 39 40 41 42 43 44 45 46 47 48 49
000
ASGM40 PGUM 212012
RWRGUM
WEATHER ROUNDUP FOR THE MARIANAS
NATIONAL WEATHER SERVICE TIYAN GU
600 AM CHST MON SEP 22 2014

GUZ001>004-212100-
MARIANA ISLANDS-

CITY           SKY/WX    TMP DP  RH WIND       PRES   REMARKS
GUAM AIRPORT   CLEAR     79  75  89 N3        29.80R
ANDERSEN AFB   PTCLDY    79  77  94 N5        29.79S
ROTA AIRPORT   PTCLDY    81  77  89 NE6       29.80
TINIAN AP      NOT AVBL
SAIPAN AP      PTCLDY    81  77  89 NE9       29.79R

$$




USA.gov is the U.S. government's official web portal to all federal, state and local government web resources and services.